Location: Esp�n
(42.4593°N, 0.2047°W)
Time: 21:58:17
(UTC+00:00)

Cosmos 836 Rocket - Pass Details

Date: 07 June 2020
Orbit: 757 x 778 km, 74.1° (Epoch: 05 July)

Event Time Altitude Azimuth Distance (km) Brightness Sun altitude
Exits shadow 01:56:57 38° 205° (SSW) 1,165 4.9 -19.4°
Maximum altitude 01:59:02 84° 290° (WNW) 786 4.5 -19.2°
Drops below altitude 10° 02:04:22 10° 19° (NNE) 2,336 8.2 -18.7°
Sets 02:06:46 0° 20° (NNE) 3,269 9.3 -18.5°
